Lapse_Rate
7.3 7.4 7.2 7.1 7.1 7.1 7.0 6.8 6.7 6.3 5.8 6.1 6.1 6.1 6.1 6.1 6.2 8.1 8.7 6.6 8.6 7.7 7.9 8.4 8.4 7.6 7.6 7.4 6.5 7.1 6.9 7.0 6.6 6.5 6.5 6.5 6.5 6.5 6.5 6.5 6.5 6.5 6.5 6.5 6.5 6.5 6.5 7.1 6.8 6.5 6.7 7.3 7.5 7.6
7.4 7.3 7.2 7.1 7.1 7.1 7.0 6.9 6.7 6.7 6.2 6.3 6.3 6.2 6.3 6.2 6.6 7.1 8.7 7.7 7.4 7.3 5.8 6.8 8.1 8.2 7.2 7.9 7.7 7.6 7.1 7.1 7.2 6.5 6.5 6.5 6.5 6.5 6.5 6.5 6.5 6.5 6.5 6.5 6.5 6.5 6.9 7.4 7.1 7.7 7.9 7.5 7.6 7.7
7.5 7.3 7.2 7.0 7.0 7.1 7.0 7.0 6.9 6.7 6.6 6.5 6.6 6.3 6.5 6.5 6.7 7.2 9.2 7.6 7.8 5.9 6.0 7.1 7.8 8.6 6.0 7.3 7.2 7.3 7.8 8.0 7.6 7.8 6.8 6.5 6.5 6.5 6.5 6.5 6.5 6.5 7.0 6.5 6.5 6.6 6.8 7.3 7.8 8.0 8.1 7.9 8.1 8.2
7.5 7.5 7.4 7.2 7.0 7.1 7.2 7.0 7.0 6.8 6.8 6.8 6.9 6.5 6.4 6.4 6.5 6.8 8.5 7.8 7.9 6.3 6.4 6.5 6.2 6.5 6.8 6.2 7.3 7.8 8.3 8.2 8.3 8.2 6.9 6.5 6.5 7.0 6.5 6.5 6.5 6.7 6.6 6.5 6.5 6.7 7.2 7.6 7.9 7.9 8.0 8.2 8.1 8.3
7.5 7.6 7.5 7.4 7.3 7.2 7.3 7.1 7.1 7.0 6.9 7.1 7.0 6.8 6.5 6.6 6.8 7.3 7.9 7.8 8.0 7.8 6.4 6.9 6.4 8.0 6.6 6.8 7.9 8.6 8.4 8.2 7.7 7.0 6.6 6.5 6.9 6.7 6.7 6.6 6.5 7.1 6.5 6.5 6.5 7.0 7.0 7.2 7.9 8.2 8.0 8.0 8.3 8.1
7.2 7.4 7.5 7.4 7.3 7.1 7.1 7.1 7.0 7.0 7.1 7.2 7.1 6.8 6.8 6.8 6.7 7.8 6.9 7.8 7.7 8.2 6.1 6.5 5.7 8.2 7.0 7.7 8.6 8.4 8.4 8.2 8.0 7.2 6.9 7.2 7.7 7.1 6.5 6.5 6.9 7.7 7.9 7.9 7.0 7.9 7.9 7.9 8.1 8.4 8.2 8.4 8.3 7.9
7.4 7.3 7.3 7.2 7.3 7.2 7.1 7.0 7.1 7.1 7.1 7.2 7.1 7.0 6.9 6.8 7.4 8.2 7.8 9.0 7.3 6.9 5.8 6.7 7.1 7.6 8.6 8.5 8.1 8.1 8.3 8.2 7.9 7.3 7.0 7.0 7.1 7.1 6.5 6.5 7.1 7.6 7.9 7.9 8.2 8.1 7.3 7.9 7.7 8.4 8.5 8.5 8.1 8.8
6.9 7.2 7.3 7.2 7.2 7.1 7.0 7.0 7.1 7.2 7.2 7.2 7.1 6.9 6.8 6.8 7.5 7.6 8.2 7.0 7.4 6.1 5.9 6.5 6.5 6.8 6.8 7.2 7.1 8.0 7.5 7.8 7.7 7.2 7.3 7.0 7.4 6.9 6.5 6.9 7.6 8.0 8.0 8.1 8.2 8.4 8.2 8.5 8.4 8.5 8.7 8.7 8.4 8.4
6.8 6.8 6.8 7.0 7.3 7.2 7.4 7.3 7.2 7.2 7.1 7.0 7.0 6.9 7.5 7.6 7.4 8.7 8.5 7.2 8.3 7.4 6.4 6.9 6.5 6.5 6.2 7.1 7.2 7.4 7.7 6.5 7.7 6.6 6.8 7.1 6.5 6.5 6.6 7.1 7.5 7.8 7.8 7.7 8.2 8.4 8.4 8.0 8.1 8.3 8.4 8.4 8.3 8.4
6.9 7.0 6.9 6.7 7.0 6.8 7.2 7.3 7.3 7.2 7.1 7.0 7.5 6.9 5.9 7.7 9.2 7.8 7.1 6.5 6.3 6.7 7.7 6.7 7.7 6.5 7.3 7.1 6.8 6.9 7.2 6.5 6.5 6.6 7.6 6.5 6.5 7.5 7.8 8.0 8.2 8.2 8.2 8.2 7.6 7.4 7.7 7.6 7.9 8.1 8.3 8.5 8.5 8.5
6.9 6.9 7.0 7.0 6.8 6.8 6.7 7.0 7.2 7.4 7.5 7.3 5.5 5.3 7.2 8.8 8.1 6.6 6.2 6.5 6.2 6.6 7.4 7.6 7.4 6.7 8.0 6.5 6.5 7.2 6.5 6.5 6.5 6.5 6.5 6.5 6.5 6.6 7.9 8.4 8.6 8.5 8.6 8.4 8.4 8.4 8.3 8.3 8.2 8.1 8.2 8.4 8.5 8.6
6.9 7.0 6.9 6.8 6.7 6.3 6.5 7.0 7.2 7.1 6.7 5.9 6.0 6.4 6.6 7.0 6.3 6.4 6.5 6.7 6.5 6.5 7.3 6.9 7.4 7.6 7.6 8.0 6.9 7.0 6.5 6.5 6.5 6.9 6.5 6.5 6.5 7.5 7.8 7.9 8.1 8.3 8.4 8.4 8.6 8.4 8.3 8.3 8.4 8.4 8.4 8.5 8.6 8.7
6.9 7.1 7.1 6.9 6.5 6.6 7.0 7.2 7.1 6.2 6.2 6.3 7.1 5.8 6.3 6.5 6.5 6.5 6.5 6.5 6.5 6.9 7.3 7.4 6.5 7.0 7.2 7.7 6.8 6.5 6.5 6.5 7.0 6.5 6.5 6.5 7.0 7.7 7.8 7.9 7.9 8.3 8.3 8.3 8.4 8.5 8.3 8.2 8.6 8.4 8.5 8.7 8.8 8.7
7.0 7.0 6.9 6.8 6.7 7.1 7.2 7.0 6.8 6.7 7.7 5.6 6.6 6.5 6.5 6.5 6.5 6.5 6.5 6.5 7.3 7.5 7.6 7.6 7.0 6.8 7.3 6.6 6.5 6.5 6.5 6.5 6.5 6.5 6.5 6.5 7.1 7.6 7.9 8.1 7.9 7.9 8.1 8.2 8.1 8.2 8.2 8.3 8.3 8.5 7.4 7.7 7.1 6.6
6.7 7.1 6.9 6.9 7.0 7.3 7.2 6.6 6.2 6.8 6.2 6.8 6.6 6.5 6.5 6.9 7.3 7.3 7.7 7.7 8.0 8.2 8.1 6.9 6.8 7.0 6.5 6.5 6.5 6.5 6.5 6.5 6.5 6.5 6.5 6.9 7.6 7.8 7.8 7.9 8.0 8.0 7.6 8.1 8.3 8.2 5.0 5.3 6.3 6.2 5.7 7.0 5.5 2.4
6.4 6.7 7.0 6.8 7.1 7.3 7.3 6.6 7.0 6.4 5.7 5.9 7.2 6.5 6.8 6.6 6.5 6.5 7.1 7.1 8.2 8.2 8.0 7.7 6.5 6.5 6.5 6.5 6.5 6.5 6.5 6.5 6.5 6.5 7.2 7.6 7.6 7.8 7.9 8.0 8.1 8.3 8.4 8.4 8.5 8.1 6.9 5.8 6.2 5.6 7.0 6.7 2.1 2.7
7.0 6.5 6.8 6.6 7.0 7.1 6.8 6.1 6.0 5.6 6.0 7.1 6.6 7.5 7.4 7.1 6.8 7.0 7.5 7.7 8.8 8.0 6.5 6.6 6.5 6.5 6.5 6.5 6.5 6.5 6.5 6.5 6.8 7.2 7.6 7.9 7.8 7.9 8.1 7.6 6.7 8.0 8.4 8.5 8.5 8.6 8.5 7.8 8.3 7.7 6.9 3.8 5.0 4.0
7.0 6.7 6.3 6.6 6.9 6.3 6.1 5.3 4.9 6.3 6.7 7.1 6.6 7.0 7.5 7.5 7.4 7.5 7.7 8.7 8.2 7.9 7.5 6.6 7.0 6.5 6.5 6.5 6.5 6.5 6.9 7.4 7.6 7.5 7.7 8.0 8.2 8.3 8.3 8.2 7.8 8.4 8.5 8.5 8.6 8.6 8.6 8.3 8.3 8.3 7.3 6.3 7.7 5.8
7.0 6.9 6.9 6.7 5.8 4.7 4.8 5.1 6.1 6.7 7.1 7.2 7.4 7.8 7.7 7.6 7.8 8.2 8.0 8.3 8.3 8.4 7.5 6.7 6.5 6.5 6.5 6.6 6.5 6.5 7.0 7.4 7.3 7.6 8.0 8.2 8.3 7.8 7.4 8.0 8.3 8.5 8.5 8.6 8.7 8.7 8.7 8.6 8.6 8.8 8.8 8.9 8.7 8.9
5.9 5.9 6.5 6.2 7.6 6.4 5.9 6.1 6.2 7.2 6.4 6.9 7.6 7.3 7.4 7.4 7.6 7.7 7.9 8.0 8.1 7.5 6.6 6.5 6.5 6.7 6.8 7.0 7.5 7.5 7.7 7.9 7.8 7.5 7.6 8.0 7.8 7.2 8.3 8.0 8.4 8.7 8.7 8.8 8.8 8.3 8.9 8.8 9.0 9.0 9.0 9.0 8.9 8.8
6.5 6.0 6.3 7.6 6.5 6.2 6.4 6.8 7.2 7.2 7.2 7.0 7.2 7.4 7.0 7.6 7.3 7.2 7.0 7.3 6.2 6.7 6.5 7.1 7.2 6.7 5.0 5.4 6.5 8.0 7.5 8.0 7.8 7.8 7.7 7.7 8.1 8.4 8.5 8.6 8.7 8.7 8.6 8.6 8.6 8.5 8.1 8.6 8.9 9.1 8.5 8.1 8.6 8.8
6.4 6.5 6.4 6.6 6.7 6.8 6.8 7.3 7.7 7.7 7.2 7.0 7.2 7.3 6.7 6.5 6.6 6.8 7.2 7.0 6.9 7.3 7.4 7.3 7.5 7.4 5.8 5.3 5.4 7.5 6.1 6.5 7.5 5.0 4.1 5.4 7.8 8.2 8.4 8.6 8.6 8.5 8.7 8.5 8.5 8.0 8.6 8.9 9.1 9.1 8.4 6.7 6.7 6.6
6.3 7.5 6.9 7.3 7.3 7.1 6.6 6.4 6.9 7.2 6.5 6.5 7.0 6.5 6.5 6.6 6.9 7.6 6.7 7.1 7.4 7.9 8.1 7.9 8.1 8.1 8.0 5.6 5.4 5.8 5.1 6.4 7.6 7.7 6.3 8.2 8.5 8.6 8.6 8.7 8.8 8.3 8.3 8.7 8.8 8.3 8.5 8.2 8.1 7.5 6.6 5.6 5.6 5.5
5.8 5.5 6.4 6.9 7.1 6.5 6.7 6.7 7.3 6.9 6.8 6.5 6.5 6.5 6.5 6.7 6.8 6.7 6.5 6.9 7.5 8.0 7.8 8.0 8.1 7.8 7.2 6.3 7.1 7.8 7.2 8.0 8.4 8.3 8.4 8.5 8.3 8.5 8.7 8.7 8.7 8.8 8.6 8.8 8.1 8.1 7.0 6.6 6.6 6.2 4.2 4.5 5.1 5.6
6.9 6.5 6.9 6.5 7.2 6.6 6.5 6.5 6.5 6.5 6.5 6.5 6.5 6.5 6.5 7.1 6.5 6.5 6.5 6.6 7.5 7.6 7.8 8.2 8.1 8.0 7.8 7.9 8.2 8.3 7.8 7.7 8.3 8.2 8.6 8.8 8.6 8.6 8.5 8.8 8.9 9.0 8.9 6.8 6.3 4.6 4.4 4.8 4.5 3.9 4.1 4.7 5.5 6.8
6.5 6.7 6.6 6.5 6.5 6.5 6.5 6.5 6.5 6.5 6.5 6.5 6.5 6.7 6.9 6.5 6.5 6.5 6.5 7.1 7.3 7.6 6.0 6.5 7.8 7.9 8.0 8.3 8.2 8.2 8.3 8.6 8.8 8.4 8.6 8.8 8.7 8.1 8.1 8.1 8.4 8.4 8.1 5.0 2.8 3.0 3.6 3.5 3.9 4.0 4.5 5.2 5.6 5.9
6.5 6.5 7.1 7.9 7.3 7.1 6.6 6.7 7.0 6.5 6.5 6.5 6.5 6.5 6.5 6.5 6.5 6.5 7.6 7.5 7.6 7.8 7.8 7.9 8.3 8.2 8.2 8.3 8.5 8.8 8.9 8.7 8.7 8.7 9.0 9.1 9.1 9.1 8.1 6.3 6.1 5.5 5.0 3.6 3.1 3.0 2.6 3.1 3.8 4.2 5.0 5.4 5.2 5.4
6.9 7.0 6.5 6.8 6.8 7.1 6.5 6.5 6.5 6.5 6.5 6.9 6.7 6.5 6.5 6.5 6.5 7.2 7.0 6.8 7.1 7.7 7.7 7.8 8.3 8.7 8.7 8.5 7.8 7.0 7.2 7.4 6.7 8.1 8.7 8.4 8.0 7.8 6.7 6.4 4.8 2.5 3.0 2.1 2.3 2.7 3.3 3.5 3.9 4.4 4.9 5.0 4.7 4.6
6.7 7.4 7.2 6.5 6.6 6.6 6.5 6.5 6.5 6.9 7.4 7.0 6.5 6.5 6.6 7.5 7.6 7.6 7.1 5.2 5.8 6.2 5.9 5.8 5.4 5.6 5.6 5.9 6.7 7.0 6.5 7.0 6.4 6.1 6.8 6.9 5.3 4.7 3.9 2.9 2.6 2.4 2.1 2.4 2.3 3.1 3.9 4.4 4.6 4.8 5.0 5.3 5.1 5.0
6.8 7.6 6.7 6.5 6.5 6.5 6.8 7.3 7.1 7.3 7.8 7.8 7.9 7.8 7.7 7.6 6.9 6.2 6.5 6.4 6.4 6.7 6.2 5.7 5.3 5.8 5.9 6.4 6.4 6.2 5.7 6.0 6.1 6.4 6.1 4.3 3.9 2.0 1.9 1.9 1.6 1.6 1.9 2.5 3.2 3.4 3.3 4.3 4.3 4.8 4.9 5.1 5.0 5.1
7.6 7.3 6.8 6.7 6.5 7.0 7.3 7.3 7.3 7.5 7.4 7.3 7.0 7.1 7.2 7.4 6.8 5.5 5.2 5.5 5.7 5.6 5.7 5.8 6.3 6.6 6.0 4.8 4.4 4.5 5.0 4.0 3.6 3.3 2.7 1.6 1.4 1.5 1.4 1.5 1.7 1.9 2.5 3.0 3.2 3.3 3.8 4.4 4.5 4.4 4.3 4.6 4.8 5.1
7.1 6.7 6.5 6.5 6.5 7.2 7.2 7.2 7.1 7.0 7.1 7.1 7.1 7.2 7.2 7.2 7.0 7.3 5.3 5.6 6.4 6.5 6.2 6.3 5.8 5.8 5.1 4.2 3.4 3.3 3.1 2.6 2.7 2.5 2.1 1.7 1.6 1.6 1.8 2.2 2.3 2.9 3.3 3.7 4.2 4.2 4.4 4.9 4.8 4.9 5.0 5.1 5.3 4.9
7.0 7.0 7.0 6.8 6.7 6.6 7.1 6.9 6.8 6.7 6.9 6.8 7.0 7.2 7.3 7.1 6.7 7.4 5.9 4.7 5.5 6.6 6.4 5.0 3.8 3.4 3.3 3.4 2.9 2.1 1.3 0.4 0.5 1.3 1.7 1.5 1.5 1.6 2.0 2.4 2.8 3.2 3.6 4.1 4.1 4.2 4.6 4.8 5.1 5.1 5.1 5.1 4.9 4.6
Wind_Speed
26 27 27 28 28 29 29 28 27 28 30 30 30 29 27 27 24 13 9 6 6 5 6 6 9 6 10 8 7 5 9 5 7 7 6 3 5 7 13 15 12 10 7 5 7 5 8 5 6 5 4 2 3 5
26 27 28 28 29 29 29 29 29 28 30 31 30 29 27 26 26 24 6 9 3 2 3 5 9 7 5 8 5 8 7 10 7 6 6 4 6 5 11 11 15 11 11 6 7 5 5 4 3 3 4 7 6 4
27 28 28 29 29 30 30 30 29 29 29 30 30 29 28 27 26 24 9 7 4 3 3 5 9 5 4 4 3 4 4 5 4 3 3 4 8 6 9 11 15 9 9 7 8 9 13 8 5 7 5 5 1 5
27 28 29 30 31 31 32 32 30 30 29 28 28 28 28 28 28 28 10 7 6 3 2 4 2 5 1 4 5 7 8 3 2 3 5 4 5 3 7 5 8 3 5 10 12 13 12 16 14 6 4 5 6 8
31 29 30 32 33 33 32 32 31 31 30 28 28 28 29 28 29 23 11 8 12 6 3 1 4 9 3 4 6 5 6 7 5 3 3 3 4 3 2 3 7 9 11 9 9 9 10 11 8 1 8 9 9 9
33 32 31 32 32 33 33 33 32 31 30 29 28 28 29 28 28 9 5 8 19 8 3 1 4 7 7 7 7 4 2 3 3 2 3 3 1 4 4 5 8 15 18 19 15 15 16 8 2 6 7 10 11 11
33 33 33 32 33 33 34 34 33 32 31 29 29 29 30 30 15 11 4 5 23 4 3 1 2 2 8 5 2 3 2 4 4 3 4 5 4 4 6 14 15 14 15 17 17 16 8 9 7 8 8 11 13 11
31 33 34 31 33 33 34 35 34 33 32 31 30 29 29 31 14 10 4 20 25 4 3 3 2 2 2 4 5 4 3 3 4 3 3 7 8 5 7 11 16 20 24 24 24 22 19 14 8 10 11 13 14 13
31 34 31 34 33 33 35 37 37 36 34 32 31 31 10 9 7 12 13 22 15 4 4 3 7 5 5 2 2 3 3 4 3 5 9 7 10 10 9 13 16 20 22 23 20 20 21 16 12 13 14 16 15 14
24 27 30 31 33 32 36 36 37 38 37 36 17 6 5 7 14 23 4 7 5 4 4 5 8 6 8 4 3 4 3 4 4 6 5 10 17 22 22 20 19 21 20 20 20 20 16 13 14 16 18 14 14 14
25 26 27 30 31 35 34 37 39 39 35 9 5 3 4 28 5 5 4 5 3 6 5 10 8 6 7 6 4 5 4 5 4 5 5 5 7 11 20 28 26 24 24 23 21 20 13 13 14 16 16 15 14 15
27 27 28 30 32 33 34 36 41 23 7 9 7 5 6 5 4 6 5 6 5 7 7 15 14 8 6 5 4 5 5 5 7 5 4 5 6 15 19 18 19 17 18 20 21 20 16 17 14 15 15 15 15 14
28 30 31 31 31 35 34 37 37 25 24 5 7 6 4 6 9 9 14 5 9 5 9 11 12 6 4 7 4 6 8 7 5 4 5 7 11 13 13 11 10 11 12 14 17 19 12 12 14 15 16 15 16 15
30 31 32 32 32 34 34 34 36 21 11 5 7 9 6 7 10 7 16 16 11 9 11 14 9 5 5 9 5 6 6 5 6 7 16 8 13 16 16 13 8 9 9 9 10 12 13 14 15 15 13 14 12 12
32 32 31 32 34 34 35 37 34 7 4 4 4 10 7 9 13 12 13 16 14 14 14 12 5 4 6 4 5 6 6 7 8 16 12 8 12 12 8 6 8 8 6 9 12 12 9 11 13 12 11 14 13 12
33 29 16 32 34 34 35 30 15 3 1 2 5 6 5 10 11 10 11 13 13 13 13 12 4 6 4 5 7 7 5 8 12 10 7 8 8 6 5 5 6 7 9 10 11 13 15 15 15 17 16 14 11 12
31 4 31 34 35 38 33 8 3 4 5 6 4 7 10 8 11 10 12 12 13 15 10 6 10 7 6 6 10 7 13 14 7 7 5 8 6 5 4 5 5 8 11 12 14 15 16 16 16 17 16 14 14 12
8 21 36 34 31 27 3 2 3 5 3 3 7 8 9 8 9 10 12 13 11 15 16 12 8 13 7 16 15 11 9 8 7 6 5 5 5 5 6 8 9 10 12 13 15 16 17 17 16 12 15 16 13 12
24 25 36 35 18 5 4 4 3 4 2 1 7 9 5 7 9 10 10 15 15 17 7 7 8 12 11 8 11 9 9 8 7 6 4 4 5 7 8 9 10 12 13 15 16 12 12 15 12 11 11 12 9 10
38 38 37 29 13 3 3 3 3 4 5 3 5 7 5 6 7 7 9 12 11 12 9 8 10 7 9 8 3 6 6 6 7 6 6 5 5 8 9 10 9 13 12 14 12 12 12 10 10 10 11 11 10 10
30 23 27 9 2 3 2 3 3 3 5 4 6 5 4 6 7 7 7 8 4 4 10 7 7 3 3 3 2 3 5 7 7 6 5 6 7 7 8 8 11 11 11 11 11 11 11 10 10 10 9 7 7 8
7 14 4 3 3 6 3 2 5 4 3 5 5 3 4 5 4 6 5 5 7 10 8 5 4 5 5 5 5 4 5 5 4 4 6 8 9 8 9 9 10 10 10 10 11 10 10 10 10 10 9 7 9 8
10 5 3 1 1 4 4 1 3 4 4 6 5 4 3 3 4 6 3 5 8 7 8 5 5 6 6 5 5 5 5 7 5 5 6 7 7 8 9 10 10 9 9 9 9 9 8 11 9 9 10 9 8 7
5 3 2 3 2 4 3 2 4 5 4 6 5 5 6 3 4 3 6 6 7 6 7 9 8 6 5 6 6 6 6 6 5 5 6 7 8 8 9 9 8 9 10 9 9 8 9 9 12 10 9 9 9 9
4 2 0 4 2 4 5 3 3 3 4 4 5 4 5 4 5 7 5 4 8 8 9 10 9 10 9 8 7 6 7 6 6 7 7 7 8 9 9 9 10 10 9 9 9 10 10 10 9 10 11 10 11 11
5 2 2 3 3 4 5 5 5 6 6 3 4 5 4 4 5 6 5 5 5 7 7 9 10 9 9 8 7 7 7 6 6 7 7 8 10 10 11 11 10 9 9 9 11 13 13 11 11 13 11 12 13 11
4 3 3 2 3 5 5 4 6 5 4 6 6 7 5 6 8 3 2 3 1 1 3 6 7 7 7 6 4 4 6 6 7 6 7 8 8 10 9 10 12 10 11 12 11 12 13 13 11 11 11 10 10 9
3 2 5 4 4 3 5 4 5 4 3 4 9 6 7 5 2 2 2 3 3 0 2 3 4 5 5 6 6 6 5 5 7 8 7 6 5 5 4 4 7 12 9 10 10 10 10 10 11 11 11 11 9 8
3 3 4 7 4 4 2 2 3 2 1 4 5 3 3 2 2 2 2 1 1 4 5 5 5 6 7 6 6 6 7 7 13 17 16 10 9 5 6 7 8 8 8 9 10 10 11 9 10 9 10 8 7 7
3 2 3 3 3 2 2 1 3 4 2 3 4 3 3 2 3 4 1 1 4 4 4 5 6 6 8 9 9 9 4 2 4 6 7 8 7 8 7 8 9 9 8 9 10 10 11 10 9 8 8 7 7 7
2 2 3 3 3 3 5 6 5 5 2 3 3 4 4 4 3 4 5 3 3 4 6 7 5 5 6 7 7 9 7 2 2 5 7 8 9 8 8 8 8 8 8 10 10 10 10 9 9 9 9 9 9 8
2 2 4 3 4 3 1 1 2 2 2 2 2 2 3 2 3 2 4 4 2 4 5 5 6 6 5 5 4 4 8 6 5 5 9 8 8 9 9 8 8 8 9 9 9 10 11 10 9 9 8 9 9 8
3 5 6 4 3 4 1 1 2 3 3 2 3 3 3 3 3 3 3 5 4 3 5 5 6 6 7 7 8 7 9 8 10 9 10 12 13 12 8 7 7 8 10 9 9 10 11 11 9 9 8 8 8 7
Wind_Direction
194 194 192 191 191 193 190 187 189 187 183 183 180 179 179 180 181 193 208 184 233 222 262 229 270 257 246 196 190 176 188 209 188 212 207 194 243 234 238 240 175 185 194 188 215 234 257 233 149 221 74 85 299 296
194 194 191 191 194 193 193 191 189 187 183 182 177 176 176 178 182 188 203 196 148 302 335 315 306 331 335 354 306 185 206 170 195 204 210 199 218 232 226 246 235 219 223 210 209 219 140 185 349 20 326 311 307 223
196 193 193 192 192 196 195 193 191 187 185 181 177 174 176 181 184 187 206 159 164 104 320 271 236 225 278 267 339 255 230 244 227 307 240 237 242 236 231 234 248 226 239 260 261 264 251 223 250 240 257 284 127 167
195 195 194 194 195 196 196 193 192 188 185 182 178 175 176 181 184 187 201 184 162 108 233 249 241 244 0 262 247 258 282 247 253 233 237 230 237 238 253 270 254 261 212 234 257 264 281 276 275 323 138 145 156 170
199 198 196 195 193 193 194 192 192 190 187 185 179 175 175 179 186 191 200 202 191 189 180 213 264 215 217 228 237 238 241 229 230 218 226 248 254 257 254 310 251 255 244 249 247 257 255 290 295 85 167 185 184 184
200 199 198 195 195 193 192 191 190 189 188 185 180 176 175 178 181 171 200 225 206 210 138 278 322 205 198 225 234 221 263 267 245 257 218 198 233 251 228 232 236 240 249 243 246 247 289 318 208 183 195 179 172 184
201 201 199 197 196 193 191 190 189 188 185 183 178 176 178 178 177 187 196 168 176 142 120 181 234 209 213 198 213 241 280 251 262 238 228 254 212 216 257 256 257 257 221 247 254 256 238 219 225 199 187 167 171 174
198 201 198 196 195 193 190 189 186 185 184 179 176 176 179 180 180 219 216 156 150 104 140 187 130 206 237 180 189 181 214 222 230 228 231 244 249 213 252 250 238 240 253 255 255 250 250 252 203 189 174 169 173 171
192 195 194 196 195 192 189 187 184 181 178 174 173 173 168 184 199 203 175 172 172 152 175 184 175 188 170 151 124 157 187 214 231 238 228 231 226 228 231 241 245 240 237 243 251 252 246 215 208 190 190 183 181 181
184 187 191 192 189 186 188 183 180 177 172 173 159 176 173 191 145 121 131 189 211 190 187 211 227 169 181 155 131 136 194 220 228 228 232 240 247 253 260 269 260 252 256 252 254 248 239 209 196 194 198 190 190 180
190 188 187 187 187 183 179 176 174 169 163 172 172 154 166 138 145 177 183 193 149 162 203 201 195 138 193 167 151 203 193 193 243 205 216 238 248 231 236 239 248 256 258 256 255 248 214 210 207 198 192 187 184 174
191 190 189 186 183 178 171 174 172 170 154 149 124 142 139 150 188 177 190 168 203 180 174 195 178 154 164 158 164 181 200 203 236 135 213 248 251 239 246 252 258 257 254 251 242 245 199 200 206 198 185 176 175 168
190 188 181 175 176 168 171 173 170 146 122 149 185 146 173 172 178 192 168 195 178 191 181 191 161 131 147 198 152 180 208 215 151 216 239 249 257 261 269 270 264 272 265 250 234 229 211 185 189 174 172 168 163 160
178 174 168 167 166 168 167 163 164 146 147 173 168 149 212 171 180 190 192 189 176 160 175 167 150 158 177 190 162 203 211 179 222 239 246 243 248 261 266 268 261 250 238 223 197 182 172 167 159 161 162 157 157 151
167 164 164 166 165 164 161 156 159 174 134 176 198 191 207 196 171 194 181 177 171 173 157 159 161 118 176 153 198 206 191 218 225 243 249 246 253 262 276 247 238 229 199 193 175 164 129 133 140 138 139 153 138 131
156 153 162 163 163 161 159 151 163 134 135 242 203 176 187 193 168 166 170 171 168 162 161 162 157 175 179 177 182 199 214 225 237 235 248 260 248 242 230 215 217 194 181 173 160 147 147 146 154 150 150 142 144 144
154 151 160 160 159 158 152 134 138 154 202 194 194 179 157 166 168 168 167 162 164 161 170 178 183 186 163 205 208 208 223 237 246 252 248 249 230 188 181 170 168 166 174 162 151 159 154 155 150 150 150 153 156 152
148 142 150 152 147 140 96 72 134 165 197 218 151 155 171 165 167 169 166 164 163 175 179 194 191 205 201 215 219 227 237 238 244 263 225 191 203 181 179 168 171 173 166 157 157 155 160 155 157 157 151 158 153 154
142 143 144 144 126 100 129 160 221 141 121 133 138 150 168 167 179 170 170 176 182 175 178 193 205 206 212 219 227 227 227 219 220 202 208 192 184 161 164 155 169 167 158 159 159 161 159 163 158 155 157 164 161 168
134 138 140 139 151 102 105 134 206 163 144 140 154 154 135 138 157 173 174 175 174 190 211 219 224 227 217 224 227 244 223 213 187 177 185 174 164 168 167 165 167 158 155 161 161 152 157 155 157 157 165 170 167 167
127 140 140 126 80 93 98 145 147 108 112 107 124 118 122 137 151 167 164 167 191 208 217 211 227 120 76 99 148 166 162 170 181 197 186 175 169 173 161 167 162 160 163 164 161 161 162 159 158 161 160 162 147 153
112 115 104 155 116 175 139 353 110 99 96 127 113 98 123 130 145 162 147 196 218 211 218 230 168 163 166 177 170 176 152 152 107 100 89 129 163 169 170 170 169 171 167 161 165 158 160 157 157 155 152 148 149 147
113 108 85 109 67 56 89 298 110 137 122 132 125 122 145 140 138 140 176 218 227 212 215 193 175 189 175 143 159 169 172 184 181 170 154 168 164 168 169 172 171 169 161 168 154 161 154 146 142 148 151 153 147 147
94 65 109 117 123 105 152 138 126 109 119 159 142 139 135 112 143 214 220 218 212 192 192 184 183 175 173 188 198 194 192 198 184 158 177 167 166 169 172 168 159 170 166 151 154 151 138 143 150 154 151 153 159 170
88 77 163 79 113 120 117 109 112 109 129 145 128 143 136 156 178 196 227 223 200 190 195 193 203 212 220 219 203 191 177 196 189 183 180 180 160 159 164 166 169 168 154 154 149 144 150 155 159 154 160 165 176 183
78 20 90 124 155 125 151 130 146 144 127 125 155 120 148 167 181 218 207 219 194 191 198 201 203 210 213 212 198 195 187 195 197 193 178 182 177 172 166 163 162 161 168 159 154 156 159 160 161 161 167 177 182 182
105 84 79 45 109 122 97 78 127 115 142 160 163 159 162 183 212 188 90 33 22 336 199 202 215 216 211 191 181 162 163 181 193 180 165 173 170 175 174 168 172 165 158 159 161 160 157 160 161 167 174 177 182 189
84 116 138 127 108 72 112 122 147 158 156 156 150 178 183 199 147 61 18 350 324 80 161 179 199 201 178 148 138 137 121 109 104 118 111 100 99 107 113 137 132 138 141 148 151 150 151 154 162 171 176 177 175 183
84 103 95 86 72 67 62 96 133 76 4 176 160 144 126 65 21 331 338 350 87 118 119 113 86 86 91 103 122 144 154 157 154 156 163 155 151 147 130 126 132 128 134 135 131 136 146 154 162 168 169 168 165 167
119 139 110 102 112 121 114 351 115 119 68 80 104 121 114 96 40 1 26 174 184 169 142 140 144 150 150 156 152 145 137 144 191 193 167 156 145 136 138 140 136 134 132 130 129 123 117 128 132 141 151 158 166 176
95 104 90 85 92 79 100 109 113 109 90 77 55 105 114 138 128 52 34 26 94 123 138 145 142 147 153 148 149 153 158 163 79 78 104 117 129 133 133 130 128 131 135 136 144 154 153 154 154 158 165 176 182 190
59 87 126 112 116 130 167 98 80 85 119 127 111 123 140 126 87 74 10 344 124 120 105 122 136 122 98 100 97 91 98 117 117 113 118 123 124 124 123 125 130 137 141 148 156 155 161 156 159 170 177 184 188 196
114 113 104 101 134 139 69 158 115 107 65 79 70 66 42 39 90 62 87 29 11 113 123 101 107 107 88 87 96 92 85 84 81 88 106 115 123 123 123 130 134 138 144 149 150 155 158 160 163 170 173 179 184 194